Weather History for Charleston, SC

Change the Weather History Date:

Tuesday, July 16, 2013

  Actual Average Record
Temperature  
Mean Temperature 83 °F 82 °F  
Max Temperature 91 °F 91 °F 100 °F (1983)
Min Temperature 75 °F 73 °F 63 °F (1967)
Degree Days  
Heating Degree Days 0 0  
Month to date heating degree days 0 0  
Since 1 June heating degree days 0 1  
Since 1 July heating degree days 0 0  
Cooling Degree Days 18 17  
Month to date cooling degree days 266 269  
Year to date cooling degree days 1077 1052  
Since 1 June cooling degree days 730 690  
Growing Degree Days 33 (Base 50)    
Moisture  
Dew Point 72 °F    
Average Humidity 73    
Maximum Humidity 94    
Minimum Humidity 52    
Precipitation  
Precipitation 0.00 in 0.21 in 3.00 in (1960)
Month to date precipitation 3.01 3.39  
Year to date precipitation 39.77 25.35  
Sea Level Pressure  
Sea Level Pressure 30.24 in    
Wind  
Wind Speed 6 mph (East)    
Max Wind Speed 14 mph    
Max Gust Speed 22 mph    
Visibility 10 miles    
Events      
T = Trace of Precipitation, MM = Missing Value Source: NWS Daily Summary

Daily Weather History Graph

Daily Weather History Graph

Search for Another Location

Airport:

Trip Planner

Search our weather history database for the weather conditions in past years. The results will help you decide how hot, cold, wet, or windy it might be!

Date:

Astronomy

Jul. 16, 2013 Rise Set
Actual Time 6:23 AM EDT 8:28 PM EDT
Civil Twilight 5:55 AM EDT 8:56 PM EDT
Nautical Twilight 5:21 AM EDT 9:30 PM EDT
Astronomical Twilight 4:44 AM EDT 10:07 PM EDT
Moon 2:15 PM EDT (7/16) 12:42 AM EDT (7/16)
Length of Visible Light 15h 01m
Length of Day
14h 05m
First Quarter, 56% of the Moon is Illuminated
Jul 16
First Quarter
Jul 22
Full
Jul 29
Last Quarter
Aug 6
New
Aug 14
First Quarter

Hourly Weather History & Observations

Time (EDT) Temp. Heat Index Dew Point Humidity Pressure Visibility Wind Dir Wind Speed Gust Speed Precip Events Conditions
12:56 AM 78.1 °F - 73.9 °F 87% 30.25 in 10.0 mi Calm Calm - N/A   Partly Cloudy
1:56 AM 77.0 °F - 73.9 °F 90% 30.25 in 10.0 mi ENE 4.6 mph - N/A   Partly Cloudy
2:56 AM 75.9 °F - 73.0 °F 91% 30.24 in 10.0 mi NNE 3.5 mph - N/A   Clear
3:56 AM 75.0 °F - 73.0 °F 94% 30.24 in 10.0 mi NNE 4.6 mph - N/A   Partly Cloudy
4:56 AM 75.9 °F - 73.0 °F 91% 30.24 in 10.0 mi NE 5.8 mph - N/A   Scattered Clouds
5:56 AM 75.0 °F - 72.0 °F 90% 30.24 in 10.0 mi NE 3.5 mph - N/A   Partly Cloudy
6:56 AM 75.9 °F - 73.0 °F 91% 30.25 in 10.0 mi NE 5.8 mph - N/A   Scattered Clouds
7:56 AM 78.1 °F - 73.9 °F 87% 30.27 in 10.0 mi NE 6.9 mph - N/A   Scattered Clouds
8:56 AM 82.0 °F 88.6 °F 75.0 °F 79% 30.28 in 10.0 mi ENE 9.2 mph - N/A   Scattered Clouds
9:56 AM 84.9 °F 91.4 °F 73.0 °F 67% 30.28 in 10.0 mi ENE 6.9 mph - N/A   Scattered Clouds
10:56 AM 87.1 °F 93.6 °F 72.0 °F 61% 30.27 in 10.0 mi ENE 6.9 mph - N/A   Scattered Clouds
11:56 AM 88.0 °F 93.8 °F 71.1 °F 57% 30.27 in 10.0 mi NE 4.6 mph - N/A   Scattered Clouds
12:56 PM 90.0 °F 95.4 °F 70.0 °F 52% 30.25 in 10.0 mi NE 5.8 mph - N/A   Scattered Clouds
1:56 PM 88.0 °F 92.9 °F 70.0 °F 55% 30.24 in 10.0 mi East 5.8 mph - N/A   Scattered Clouds
2:56 PM 88.0 °F 95.6 °F 73.0 °F 61% 30.24 in 10.0 mi ESE 10.4 mph - N/A   Scattered Clouds
3:56 PM 89.1 °F 96.0 °F 72.0 °F 57% 30.23 in 10.0 mi SE 9.2 mph - N/A   Mostly Cloudy
4:56 PM 88.0 °F 93.8 °F 71.1 °F 57% 30.22 in 10.0 mi ESE 10.4 mph - N/A   Mostly Cloudy
5:56 PM 88.0 °F 92.1 °F 69.1 °F 53% 30.22 in 10.0 mi SE 8.1 mph - N/A   Scattered Clouds
6:56 PM 86.0 °F 92.2 °F 72.0 °F 63% 30.22 in 10.0 mi SSE 8.1 mph - N/A   Scattered Clouds
7:56 PM 84.0 °F 89.6 °F 72.0 °F 67% 30.23 in 10.0 mi SSE 5.8 mph - N/A   Scattered Clouds
8:56 PM 81.0 °F 84.9 °F 71.1 °F 72% 30.22 in 10.0 mi SSE 4.6 mph - N/A   Scattered Clouds
9:56 PM 79.0 °F - 72.0 °F 79% 30.24 in 10.0 mi SW 3.5 mph - N/A   Scattered Clouds
10:56 PM 78.1 °F - 73.0 °F 84% 30.24 in 10.0 mi Calm Calm - N/A   Partly Cloudy
11:56 PM 77.0 °F - 73.0 °F 88% 30.24 in 10.0 mi SSW 3.5 mph - N/A   Clear